Weather in Yampil

Ukraine / Sumi District     51°56′52″N   33°47′12″E
temp.,
°C
wind,
m/s
gust,
m/s
humid.,
%
clouds,
%
prec.,
mm/h
press.,
hPa
HPBL,
m
6 march, sat
sat623:00−6nw2392100 0.0 101741
02:00−7wnw3593100 0.0 1019101
05:00−10nw369488 0.0 1019101
08:00−9nw489552 0.0 1021239
11:00−5nw46880 0.0 1021488
14:00−3wnw577615 0.0 10211071
17:00−6wnw238898 0.1 102138
20:00−9wnw239083 0.1 102123
7 march, sun
sun723:00−10wsw34910 0.0 102151
02:00−10sw510900 0.0 1019184
05:00−8sw7168367 0.0 1016372
08:00−5sw9188683 0.0 1013681
11:00−1wsw111787100 0.1 10081242
14:000wsw111892100 0.3 10061314
17:00+1w91888100 0.2 10051231
20:00−2wnw61584100 1.2 1007558
8 march, mon
mon823:00−5wsw5119324 0.0 1006273
02:00−3wsw6159154 0.1 1006563
05:00−5wnw61387100 0.1 1006631
08:00−9nw5117972 0.1 1008520
11:00−6nw59777 0.0 1010683
14:00−4wnw57764 0.0 1012918
17:00−6wnw34850 0.0 101283
20:00−9wnw33840 0.0 101437
9 march, tue
tue923:00−10w238639 0.0 101521
02:00−10w228746 0.0 101522
05:00−10wnw239484 0.0 101581
08:00−8nnw469392 0.3 1017339
11:00−7nnw5685100 0.0 1018756
14:00−6nnw5680100 0.1 1020984
17:00−8nw4887100 0.1 1021396
20:00−11nnw368965 0.1 1024104
10 march, wed
wed1023:00−13nnw23900 0.0 102520
02:00−14wsw239111 0.0 102521
05:00−14sw349045 0.0 102562
08:00−10wsw598871 0.0 1024281
11:00−5w61079100 0.0 1023561
14:00−3w697899 0.0 1023754
17:00−5wsw378596 0.0 1022209
20:00−8wsw348765 0.0 102358